[[{"header":{"parameterUnit":"m.s-1","parameterCategory":1,"la1":30.2991,"la2":30.254,"lo1":-89.0895,"lo2":-89.0444,"dy":0.0017,"dx":0.0017,"nx":28,"ny":28,"refTime":"2024-02-20T03:00:00:Z","depth":0,"parameterNumber":2,"parameterNumberName":"U-component_of_WINDS"},"data":[0,0,0,0,0,0,0,0,0,0,0,0,0,0,0,0,0,0,0,0,0,0,0,0,0,0,0,0,0,0,0,0,0,0,0,0,0,0,0,0,0,0,0,0,0,0,0,0,0,0,0,0,0,0,0,0,0,0,1.4723,1.4725,0,1.4899,1.4901,1.4903,1.497,1.497,1.497,1.4969,1.5145,1.515,1.5155,0,0,0,0,0,0,0,0,0,0,0,0,0,1.4443,1.4448,1.4723,1.4725,1.4728,1.4898,1.4901,1.4903,1.4971,1.497,1.4969,1.4969,1.5143,1.5149,1.5155,0,0,0,0,0,0,0,0,0,0,0,0,0,1.4586,1.4449,1.4723,1.4782,1.4789,1.4898,1.4901,1.4904,1.4971,1.497,1.4969,1.4969,1.5141,1.5148,1.5156,1.5218,0,0,1.5179,1.5183,0,0,0,0,0,0,0,0,1.4578,1.4596,1.4771,1.4778,1.4786,1.4912,1.4867,1.5009,1.4971,1.4901,1.4969,1.4968,1.5067,1.5081,1.5116,1.5226,1.5234,1.518,1.5185,1.5188,1.519,0,0,0,0,0,0,0,1.4568,1.4589,1.4792,1.4773,1.4783,1.4798,1.4818,1.4894,1.4986,1.4907,1.4913,1.4933,1.5071,1.5108,1.512,1.5236,1.518,1.5187,1.5191,1.5194,1.5407,1.5408,0,0,0,0,0,0,1.4548,1.458,1.4787,1.4798,1.4678,1.4804,1.4826,1.4872,1.4986,1.5002,1.4933,1.4935,1.5095,1.5111,1.5127,1.5207,1.5188,1.5195,1.52,1.5406,1.5407,1.5408,0,0,0,0,0,0,1.4542,1.4566,1.478,1.4691,1.4719,1.481,1.4861,1.4876,1.4913,1.5005,1.5022,1.4954,1.5095,1.5116,1.5195,1.5214,1.5199,1.5206,1.5405,1.5406,1.5408,1.5368,0,0,0,0,0,0,1.4534,1.4564,1.4589,1.4691,1.4724,1.4846,1.4862,1.488,1.4926,1.4931,1.5029,1.5045,1.5096,1.5183,1.5203,1.5225,1.5212,1.5404,1.5406,1.5407,1.5368,1.5368,1.5368,0,0,0,0,0,1.4524,1.457,1.459,1.4614,1.4757,1.4847,1.4866,1.4926,1.4928,1.4953,1.5013,1.5041,1.5209,1.5191,1.5213,1.5238,1.5403,1.5405,1.5407,1.5368,1.5368,1.5368,0,0,0,0,0,0,1.4466,1.4584,1.4608,1.4688,1.4757,1.4859,1.4893,1.4924,1.4993,1.4994,1.5064,1.5086,1.5159,1.5207,1.5184,1.5304,1.5308,1.5315,1.5271,1.5271,1.5271,1.5258,1.5218,0,0,0,0,0,1.4463,1.4528,1.4627,1.4688,1.4722,1.4801,1.4843,1.4883,1.4957,1.4986,1.5052,1.5121,1.519,1.5233,1.5301,1.5376,1.5398,1.5403,1.5403,1.5403,1.5408,1.5451,1.5455,1.5416,1.5416,1.5416,0,0,1.4457,1.4529,1.4565,1.4679,1.4737,1.4801,1.4825,1.4892,1.4941,1.4996,1.5076,1.5126,1.5208,1.5285,1.5323,1.5327,1.5424,1.5406,1.5405,1.541,1.5454,1.5458,1.5461,1.5418,1.5417,1.5417,0,0,1.4479,1.454,1.4598,1.4657,1.4746,1.4798,1.4812,1.4909,1.4945,1.5027,1.507,1.5127,1.5244,1.5301,1.5345,1.5389,1.5418,1.5409,1.5409,1.545,1.5454,1.5457,1.5472,1.5477,1.5414,1.5414,1.5414,0,1.4459,1.4559,1.4624,1.469,1.4738,1.4793,1.4852,1.4905,1.501,1.5042,1.5046,1.5194,1.5253,1.5344,1.5355,1.5389,1.5407,1.5398,1.5448,1.5452,1.5456,1.5472,1.5477,1.5412,1.5412,1.5413,1.5413,0,1.4531,1.46,1.4636,1.4739,1.4791,1.4853,1.4926,1.4971,1.5007,1.5059,1.5141,1.5214,1.5298,1.5323,1.5358,1.542,1.542,1.5435,1.544,1.5457,1.5473,1.5479,1.541,1.5411,1.5411,1.5411,0,0,1.4521,1.466,1.4672,1.472,1.4822,1.4876,1.4939,1.5024,1.5061,1.5132,1.5187,1.5285,1.53,1.535,1.5392,1.5428,1.5459,1.5439,1.5442,1.544,1.5531,1.5519,1.5525,1.5478,1.548,1.5481,1.5525,0,1.4557,1.4675,1.4736,1.4828,1.4892,1.4945,1.5001,1.5069,1.512,1.518,1.5235,1.5304,1.5318,1.5349,1.5388,1.5447,1.5478,1.5444,1.5529,1.5532,1.5507,1.5534,1.5522,1.5559,1.5531,1.5532,1.5533,0,1.4614,1.4686,1.4785,1.4881,1.491,1.4959,1.5041,1.5099,1.5177,1.5211,1.5268,1.5309,1.5378,1.5378,1.5473,1.5449,1.5488,1.5522,1.5525,1.5535,1.5533,1.5545,1.5573,1.5578,1.5544,1.5543,1.5542,0,1.4597,1.4719,1.4794,1.4833,1.4946,1.498,1.5028,1.5106,1.5153,1.5224,1.5255,1.5332,1.5375,1.5433,1.5494,1.5489,1.5583,1.5589,1.5613,1.5611,1.563,1.5628,1.5665,1.5655,1.5655,1.5655,1.5654,0,1.463,1.4689,1.4788,1.4834,1.4901,1.497,1.5034,1.5086,1.5155,1.5212,1.5262,1.5313,1.5391,1.5452,1.55,1.5571,1.559,1.5619,1.5631,1.5615,1.5611,1.564,1.5639,1.5656,1.5656,1.5655,1.5655,0,1.4622,1.4691,1.4777,1.4878,1.4905,1.4949,1.5035,1.5082,1.5135,1.5206,1.5226,1.5309,1.5384,1.5451,1.5549,1.5582,1.5655,1.5669,1.5629,1.5635,1.5656,1.5653,1.5712,1.5724,1.5706,1.5706,1.5706,0,1.4639,1.4686,1.4792,1.4834,1.4882,1.495,1.4998,1.5067,1.5115,1.5209,1.5244,1.5322,1.5389,1.5506,1.5574,1.565,1.5667,1.5682,1.5678,1.5661,1.5667,1.5664,1.5669,1.5682,1.5682,1.5681,1.5681,0,1.4661,1.4694,1.4762,1.4843,1.49,1.4967,1.5035,1.5066,1.5148,1.5199,1.5278,1.5329,1.5431,1.5508,1.5592,1.5641,1.5674,1.5682,1.5692,1.5676,1.565,1.5664,1.5627,1.568,1.5681,1.5681,1.5681,1.5681,1.4667,1.4711,1.4793,1.4868,1.4927,1.4989,1.5038,1.5098,1.5165,1.5254,1.529,1.537,1.5447,1.5563,1.5612,1.5674,1.568,1.5694,1.5697,1.57,1.5697,1.564,1.5689,1.5689,1.5689,1.5689,1.569,0,1.4692,1.4747,1.4816,1.4911,1.4969,1.4998,1.5075,1.5122,1.5191,1.5261,1.5327,1.5416,1.5492,1.5566,1.5646,1.5681,1.5699,1.5699,1.5697,1.5708,1.5687,1.5671,1.5684,1.5684,1.5684,1.5684,1.5684,1.5684,1.4712,1.4788,1.483,1.4936,1.4991,1.507,1.5112,1.517,1.5226,1.5324,1.5388,1.5437,1.5509,1.5594,1.5664,1.5684,1.5711,1.5707,1.5731,1.571,1.571,1.5709,1.5695,1.5713,1.5713,1.5748,1.5748,1.5748]},{"header":{"parameterUnit":"m.s-1","parameterCategory":1,"la1":30.2991,"la2":30.254,"lo1":-89.0895,"lo2":-89.0444,"dy":0.0017,"dx":0.0017,"nx":28,"ny":28,"refTime":"2024-02-20T03:00:00:Z","depth":0,"parameterNumber":3,"parameterNumberName":"V-component_of_WINDS"},"data":[0,0,0,0,0,0,0,0,0,0,0,0,0,0,0,0,0,0,0,0,0,0,0,0,0,0,0,0,0,0,0,0,0,0,0,0,0,0,0,0,0,0,0,0,0,0,0,0,0,0,0,0,0,0,0,0,0,0,-0.9384,-0.9385,0,-0.9474,-0.9475,-0.9476,-0.9472,-0.9471,-0.9469,-0.9468,-0.9562,-0.9566,-0.9569,0,0,0,0,0,0,0,0,0,0,0,0,0,-0.9211,-0.9214,-0.9384,-0.9385,-0.9386,-0.9474,-0.9475,-0.9476,-0.9472,-0.9471,-0.9469,-0.9468,-0.9561,-0.9565,-0.957,0,0,0,0,0,0,0,0,0,0,0,0,0,-0.9292,-0.9215,-0.9384,-0.9395,-0.9397,-0.9474,-0.9475,-0.9477,-0.9473,-0.9471,-0.9469,-0.9467,-0.9559,-0.9565,-0.957,-0.9643,0,0,-0.9587,-0.9589,0,0,0,0,0,0,0,0,-0.9287,-0.9298,-0.9392,-0.9394,-0.9397,-0.946,-0.9448,-0.9532,-0.9473,-0.9444,-0.9468,-0.9466,-0.953,-0.9538,-0.9559,-0.9647,-0.9651,-0.9588,-0.9591,-0.9593,-0.9595,0,0,0,0,0,0,0,-0.9282,-0.9295,-0.942,-0.9394,-0.9396,-0.9396,-0.9405,-0.9464,-0.9497,-0.9446,-0.9446,-0.9457,-0.953,-0.9553,-0.9561,-0.9652,-0.9587,-0.9592,-0.9596,-0.9598,-0.9806,-0.9808,0,0,0,0,0,0,-0.9274,-0.929,-0.9417,-0.9423,-0.9336,-0.9401,-0.9411,-0.9442,-0.9496,-0.9502,-0.9458,-0.9456,-0.9545,-0.9554,-0.9564,-0.9653,-0.9593,-0.9598,-0.9602,-0.9804,-0.9806,-0.9809,0,0,0,0,0,0,-0.927,-0.9285,-0.9413,-0.9356,-0.9373,-0.9406,-0.944,-0.9444,-0.9467,-0.9505,-0.9511,-0.9476,-0.9544,-0.9556,-0.9623,-0.9656,-0.9601,-0.9606,-0.9801,-0.9804,-0.9807,-0.9832,0,0,0,0,0,0,-0.9265,-0.9284,-0.9311,-0.9357,-0.9376,-0.9471,-0.9442,-0.9447,-0.9476,-0.9475,-0.9523,-0.9529,-0.9543,-0.9615,-0.9629,-0.9663,-0.961,-0.9798,-0.9802,-0.9806,-0.9828,-0.9835,-0.9842,0,0,0,0,0,-0.9259,-0.9315,-0.9313,-0.9328,-0.941,-0.9472,-0.9483,-0.9498,-0.9479,-0.9507,-0.9532,-0.9527,-0.965,-0.9622,-0.9637,-0.9674,-0.9796,-0.9801,-0.9806,-0.9825,-0.9834,-0.9841,0,0,0,0,0,0,-0.9272,-0.9321,-0.9319,-0.9391,-0.9428,-0.9472,-0.9508,-0.9507,-0.955,-0.9546,-0.9564,-0.9574,-0.9642,-0.9664,-0.9632,-0.9747,-0.9721,-0.9729,-0.973,-0.9739,-0.9745,-0.9739,-0.9615,0,0,0,0,0,-0.9284,-0.9329,-0.9369,-0.9429,-0.9447,-0.9474,-0.9502,-0.951,-0.9549,-0.9564,-0.9594,-0.9632,-0.9679,-0.971,-0.9756,-0.9831,-0.9842,-0.9864,-0.987,-0.9876,-0.9883,-0.9925,-0.9936,-0.9825,-0.9825,-0.9825,0,0,-0.9308,-0.934,-0.9368,-0.9433,-0.9462,-0.9509,-0.9487,-0.9539,-0.9574,-0.9572,-0.9637,-0.966,-0.9704,-0.9776,-0.9809,-0.9797,-0.9916,-0.9882,-0.9886,-0.9891,-0.9932,-0.9942,-0.9951,-0.9828,-0.9828,-0.9827,0,0,-0.9376,-0.9404,-0.9457,-0.9487,-0.9532,-0.9549,-0.9562,-0.9606,-0.9621,-0.9687,-0.9686,-0.9729,-0.981,-0.9842,-0.9868,-0.9949,-0.9947,-0.9963,-0.9999,-1.004,-1.0049,-1.0057,-1.0086,-1.0096,-0.997,-0.997,-0.997,0,-0.94,-0.9471,-0.9485,-0.9537,-0.9566,-0.9566,-0.962,-0.9649,-0.9706,-0.9726,-0.9712,-0.9814,-0.9843,-0.9922,-0.9942,-0.9963,-0.9979,-0.9958,-1.0046,-1.0054,-1.0062,-1.009,-1.0101,-0.9972,-0.9972,-0.9971,-0.9971,0,-0.9499,-0.9549,-0.9587,-0.9641,-0.9675,-0.9728,-0.975,-0.9782,-0.9788,-0.9807,-0.9874,-0.9909,-0.9962,-0.9982,-0.9987,-1.0062,-1.0053,-1.0042,-1.0017,-1.0074,-1.0101,-1.0112,-0.9974,-0.9974,-0.9973,-0.9973,0,0,-0.9579,-0.9641,-0.9654,-0.968,-0.9729,-0.9768,-0.9821,-0.9872,-0.99,-0.9939,-0.9985,-1.0054,-1.0044,-1.0074,-1.0083,-1.0119,-1.0182,-1.0104,-1.0105,-1.0118,-1.0267,-1.0276,-1.0288,-1.018,-1.0183,-1.0184,-1.0264,0,-0.9652,-0.9746,-0.976,-0.9843,-0.989,-0.989,-0.9937,-0.9972,-0.9992,-1.0035,-1.0056,-1.0105,-1.0088,-1.0106,-1.0142,-1.0167,-1.0212,-1.0161,-1.0224,-1.0226,-1.0214,-1.0302,-1.0311,-1.0385,-1.0275,-1.0276,-1.0278,0,-0.9751,-0.9793,-0.988,-0.9924,-0.9944,-0.9985,-1.0034,-1.0074,-1.0115,-1.0127,-1.0161,-1.0166,-1.0222,-1.0193,-1.0271,-1.0236,-1.0262,-1.0278,-1.0282,-1.0289,-1.0256,-1.0313,-1.0409,-1.042,-1.0294,-1.0293,-1.0292,0,-0.9801,-0.9879,-0.9942,-0.9964,-1.0016,-1.0045,-1.0068,-1.0107,-1.0137,-1.018,-1.02,-1.0248,-1.0275,-1.0313,-1.0332,-1.0309,-1.0409,-1.0381,-1.0421,-1.0421,-1.0443,-1.0441,-1.0545,-1.0458,-1.0458,-1.0458,-1.0458,0,-0.9882,-0.9936,-0.9965,-1.0004,-1.0064,-1.0081,-1.014,-1.0162,-1.0197,-1.0241,-1.0244,-1.0285,-1.0307,-1.0351,-1.0366,-1.0429,-1.0441,-1.0452,-1.0456,-1.0453,-1.0451,-1.0471,-1.0467,-1.0461,-1.046,-1.046,-1.0459,0,-0.9949,-0.997,-1.0039,-1.0083,-1.0095,-1.0138,-1.0175,-1.0213,-1.0232,-1.0288,-1.0301,-1.0332,-1.0384,-1.0406,-1.0471,-1.0481,-1.0553,-1.0552,-1.054,-1.0541,-1.058,-1.0576,-1.0701,-1.0719,-1.0619,-1.062,-1.0621,0,-1.0,-1.0041,-1.0089,-1.0118,-1.0142,-1.0189,-1.022,-1.0238,-1.027,-1.0319,-1.0352,-1.0404,-1.0447,-1.0531,-1.0559,-1.0609,-1.061,-1.065,-1.0617,-1.0613,-1.0612,-1.0609,-1.0614,-1.0656,-1.0657,-1.0658,-1.0659,0,-1.0088,-1.0097,-1.0141,-1.0189,-1.0226,-1.0264,-1.0302,-1.0326,-1.035,-1.0386,-1.0439,-1.0473,-1.0539,-1.0591,-1.0642,-1.0667,-1.0668,-1.0669,-1.0681,-1.0678,-1.067,-1.0676,-1.0557,-1.0666,-1.0665,-1.0665,-1.0664,-1.0664,-1.0149,-1.0186,-1.0225,-1.0275,-1.0305,-1.0341,-1.0379,-1.0403,-1.0447,-1.0502,-1.051,-1.0567,-1.0608,-1.0677,-1.0703,-1.0749,-1.0739,-1.0756,-1.0761,-1.0765,-1.0768,-1.0661,-1.0758,-1.0758,-1.0758,-1.0758,-1.0758,0,-1.0238,-1.0263,-1.0308,-1.0362,-1.0401,-1.0397,-1.0439,-1.0472,-1.0522,-1.056,-1.0602,-1.0664,-1.0715,-1.0747,-1.0799,-1.0829,-1.0831,-1.0842,-1.0841,-1.0847,-1.0773,-1.0758,-1.084,-1.084,-1.084,-1.084,-1.084,-1.084,-1.0289,-1.0352,-1.0365,-1.0443,-1.0469,-1.0525,-1.0549,-1.0583,-1.0612,-1.0681,-1.0724,-1.0744,-1.078,-1.0834,-1.0881,-1.0889,-1.0909,-1.0921,-1.0929,-1.086,-1.0852,-1.0843,-1.0829,-1.0925,-1.0925,-1.0998,-1.0999,-1.0999]}]]